| time (UTC) | temp F | wind direction | speed MPH | gust MPH | rain 1hr in | rain 24hr in | rain mn in | humidity % | barometer mb |
| 20260510110805 | 37 | 250 | 2.0 | 3.0 | 0.00 | 0.00 | 0.00 | 84 | 1002.4 |
| 20260510110305 | 37 | 247 | 2.0 | 6.0 | 0.00 | 0.00 | 0.00 | 84 | 1002.4 |
| 20260510100804 | 38 | 269 | 4.0 | 8.0 | 0.00 | 0.00 | 0.00 | 80 | 1002.4 |
| 20260510100304 | 38 | 281 | 3.0 | 8.0 | 0.00 | 0.00 | 0.00 | 80 | 1002.3 |
| 20260510090804 | 37 | 266 | 2.0 | 5.0 | 0.00 | 0.00 | 0.00 | 82 | 1002.1 |
| 20260510090305 | 37 | 173 | 3.0 | 7.0 | 0.00 | 0.00 | 0.00 | 81 | 1002.0 |
| 20260510080804 | 40 | 295 | 3.0 | 3.0 | 0.00 | 0.00 | 0.00 | 76 | 1002.0 |
| 20260510080305 | 40 | 274 | 3.0 | 7.0 | 0.00 | 0.00 | 0.00 | 75 | 1002.0 |
| 20260510070304 | 41 | 299 | 3.0 | 8.0 | 0.00 | 0.00 | 0.00 | 74 | 1001.9 |
| 20260510060805 | 42 | 278 | 3.0 | 7.0 | 0.00 | 0.00 | 0.00 | 72 | 1001.9 |
| 20260510060305 | 42 | 129 | 3.0 | 7.0 | 0.00 | 0.00 | 0.00 | 72 | 1001.8 |
| 20260510050804 | 44 | 129 | 1.0 | 5.0 | 0.00 | 0.00 | 0.00 | 66 | 1001.3 |
| 20260510040804 | 48 | 26 | 2.0 | 3.0 | 0.00 | 0.00 | 0.00 | 60 | 1001.3 |
| 20260510040305 | 49 | 58 | 3.0 | 8.0 | 0.00 | 0.00 | 0.00 | 60 | 1001.4 |
| 20260510030304 | 50 | 325 | 6.0 | 9.0 | 0.00 | 0.00 | 0.00 | 58 | 1001.4 |
| 20260510020304 | 51 | 292 | 5.0 | 9.0 | 0.00 | 0.00 | 0.00 | 56 | 1001.6 |
| 20260510010804 | 51 | 297 | 4.0 | 7.0 | 0.00 | 0.00 | 0.00 | 54 | 1001.7 |
| 20260510010305 | 52 | 287 | 3.0 | 9.0 | 0.00 | 0.00 | 0.00 | 55 | 1001.7 |
| 20260510000804 | 53 | 359 | 1.0 | 6.0 | 0.00 | 0.00 | 0.00 | 55 | 1001.4 |
| 20260509230804 | 53 | 320 | 2.0 | 6.0 | 0.00 | 0.00 | 0.00 | 53 | 1001.3 |
| 20260509230305 | 53 | 315 | 2.0 | 8.0 | 0.00 | 0.00 | 0.00 | 53 | 1001.3 |
| 20260509220804 | 53 | 145 | 1.0 | 3.0 | 0.00 | 0.00 | 0.00 | 58 | 1001.5 |
| 20260509220305 | 53 | 12 | 2.0 | 9.0 | 0.00 | 0.00 | 0.00 | 58 | 1001.5 |
| 20260509210304 | 54 | 34 | 2.0 | 9.0 | 0.00 | 0.00 | 0.00 | 57 | 1001.3 |
| 20260509200804 | 52 | 356 | 3.0 | 9.0 | 0.00 | 0.00 | 0.00 | 61 | 1001.3 |
| 20260509190805 | 53 | 65 | 2.0 | 9.0 | 0.00 | 0.00 | 0.00 | 63 | 1000.6 |
| 20260509180304 | 50 | 281 | 4.0 | 8.0 | 0.00 | 0.00 | 0.00 | 69 | 1001.1 |
| 20260509160739 | 43 | 288 | 5.0 | 7.0 | 0.00 | 0.00 | 0.00 | 81 | 1001.1 |
| 20260509160239 | 43 | 27 | 3.0 | 8.0 | 0.00 | 0.00 | 0.00 | 81 | 1001.1 |
| 20260509150740 | 42 | 280 | 3.0 | 8.0 | 0.00 | 0.00 | 0.00 | 82 | 1001.1 |
| 20260509140740 | 41 | 114 | 3.0 | 8.0 | 0.00 | 0.00 | 0.00 | 84 | 1001.6 |
| 20260509130739 | 41 | 78 | 3.0 | 7.0 | 0.00 | 0.00 | 0.00 | 84 | 1001.8 |
| 20260509130240 | 41 | 289 | 3.0 | 9.0 | 0.00 | 0.00 | 0.00 | 84 | 1001.8 |
| 20260509120740 | 41 | 306 | 5.0 | 9.0 | 0.00 | 0.00 | 0.00 | 81 | 1001.9 |
| 20260509120240 | 41 | 294 | 6.0 | 9.0 | 0.00 | 0.00 | 0.00 | 81 | 1001.9 |